Weather History for K1V4 - October, 2013

Change the Weather History Date:

Friday, October 4, 2013

  Actual Average Record
Temperature  
Mean Temperature 54 °F 52 °F  
Max Temperature 67 °F 63 °F 81 °F (1967)
Min Temperature 40 °F 41 °F 23 °F (1945)
Degree Days  
Heating Degree Days 11 13  
Month to date heating degree days 28 50  
Since 1 July heating degree days 336 284  
Cooling Degree Days 0 0  
Month to date cooling degree days 0 0  
Year to date cooling degree days 407 432  
Growing Degree Days 2 (Base 50)    
Moisture  
Dew Point 45 °F    
Average Humidity 73    
Maximum Humidity 100    
Minimum Humidity 45    
Precipitation  
Precipitation 0.00 in 0.12 in 2.45 in (1987)
Month to date precipitation 0.00 0.50  
Year to date precipitation 28.62 29.65  
Sea Level Pressure  
Sea Level Pressure 30.08 in    
Wind  
Wind Speed - (North)    
Max Wind Speed -    
Max Gust Speed -    
T = Trace of Precipitation, MM = Missing Value Source: NWS Daily Summary

Daily Weather History Graph

Daily Weather History Graph

Search for Another Location

Airport or City:

Trip Planner

Search our weather history database for the weather conditions in past years. The results will help you decide how hot, cold, wet, or windy it might be!

Date:

Astronomy

Oct. 04, 2013 Rise Set
Actual Time 6:49 AM EDT 6:22 PM EDT
Civil Twilight 6:20 AM EDT 6:51 PM EDT
Nautical Twilight 5:47 AM EDT 7:25 PM EDT
Astronomical Twilight 5:13 AM EDT 7:59 PM EDT
Moon 6:22 AM EDT 6:02 PM EDT
Length of Visible Light 12h 31m
Length of Day
11h 33m
Waning Crescent, 0% of the Moon is Illuminated
Oct 4
Waning Crescent
Oct 4
New
Oct 11
First Quarter
Oct 18
Full
Oct 26
Last Quarter

Hourly Weather History & Observations

Time (EDT) Temp. Dew Point Humidity Pressure Visibility Wind Dir Wind Speed Gust Speed Precip Events Conditions
12:54 AM 45.0 °F 43.0 °F 93% 30.06 in - North - - N/A   Unknown
1:54 AM 44.1 °F 42.1 °F 93% 30.07 in - North - - N/A   Unknown
2:54 AM 43.0 °F 42.1 °F 97% 30.07 in - North - - N/A   Unknown
3:54 AM 42.1 °F 41.0 °F 96% 30.07 in - North - - N/A   Unknown
4:54 AM 41.0 °F 39.9 °F 96% 30.08 in - North - - N/A   Unknown
5:54 AM 41.0 °F 39.9 °F 96% 30.09 in - North - - N/A   Unknown
6:54 AM 39.9 °F 39.0 °F 97% 30.11 in - North - - N/A   Unknown
7:54 AM 41.0 °F 39.0 °F 93% 30.12 in - North - - N/A   Unknown
8:54 AM 44.1 °F 41.0 °F 89% 30.12 in - North - - N/A   Unknown
9:54 AM 50.0 °F 44.1 °F 80% 30.12 in - North - - N/A   Unknown
10:54 AM 53.1 °F 45.0 °F 74% 30.10 in - North - - N/A   Unknown
11:54 AM 55.0 °F 46.0 °F 72% 30.09 in - North - - N/A   Unknown
12:54 PM 60.1 °F 46.9 °F 62% 30.07 in - North - - N/A   Unknown
1:54 PM 64.9 °F 46.9 °F 52% 30.04 in - North - - N/A   Unknown
2:54 PM 66.0 °F 46.0 °F 48% 30.04 in - North - - N/A   Unknown
3:54 PM 66.0 °F 44.1 °F 45% 30.04 in - North - - N/A   Unknown
4:54 PM 66.0 °F 46.9 °F 50% 30.03 in - North - - N/A   Unknown
5:54 PM 63.0 °F 48.9 °F 60% 30.05 in - North - - N/A   Unknown
6:54 PM 59.0 °F 48.9 °F 69% 30.06 in - North - - N/A   Unknown
7:54 PM 57.0 °F 48.0 °F 72% 30.07 in - North - - N/A   Unknown
8:54 PM 55.0 °F 50.0 °F 83% 30.08 in - North - - N/A   Unknown
9:54 PM 55.0 °F 50.0 °F 83% 30.08 in - North - - N/A   Unknown
10:54 PM 55.9 °F 46.9 °F 72% 30.08 in - North - - N/A   Unknown
11:54 PM 55.0 °F 48.9 °F 80% 30.08 in - North - - N/A   Unknown